sat.trackr.live / text

‹ back to catalog

STARLINK-5106

NORAD 54823 · 2022-177D

PAYLOAD ACTIVE UNKNOWN

§ Identity

Operator
Country
US
Launch date
2022-12-28
Launch site
AFETR
Launch vehicle
Mass (kg)
RCS (m²)

Purposes: comms

External: N2YO · Heavens-Above · Gunter

§ Orbital elements

Epoch: 2026-09-20T22:08:15.469728Z

Period
94.27 min
Inclination
43.0027°
Eccentricity
0.0001906
Mean motion
15.27564360 rev/d
Perigee alt
481.8 km
Apogee alt
484.4 km
Semi-major
6,861.2 km
B*
-3.4094e-5
RAAN
113.3229°
Arg perigee
261.1737°
Mean anomaly
98.8899°
Rev number
20,678

§ Raw data

STARLINK-51061 54823U 22177D   26263.92240127 -.00001200  00000+0 -34094-4 0  99952 54823  43.0027 113.3229 0001906 261.1737  98.8899 15.27564360206787

JSON: /api/v1/satellites/54823 · /tle

For live sub-satellite position, see the globe view (requires WebGL).

§ Visibility from observer

Set your observer location to see the next 7 days of passes ≥ 10°. The values pass through the URL so the page stays shareable.

No JS? Fill the form by hand. The geolocation button needs JavaScript.